Date,Time,Wetness (Wet Dry or Ice),Wind Speed (m/s),Temperature (C),Humidity (%),Pressure (mb),Radiation (W/m^2)
2017-12-21,05:25:00,DRY,6.70,5.95,12.5,777.00,1.1
2017-12-21,05:30:00,DRY,7.20,6.03,12.0,777.00,1.1
2017-12-21,05:35:00,DRY,6.70,6.70,11.0,777.00,0.6
2017-12-21,05:40:00,DRY,7.20,6.00,12.7,777.00,1.0
2017-12-21,05:45:00,DRY,7.10,6.30,11.0,777.00,0.9
2017-12-21,05:50:00,DRY,6.43,6.20,11.0,777.00,0.8
2017-12-21,05:55:00,DRY,6.40,6.40,10.5,777.00,1.2
2017-12-21,06:00:00,DRY,5.67,6.37,10.7,777.00,1.0
2017-12-21,06:05:00,DRY,4.55,6.05,13.0,777.00,0.4
2017-12-21,06:10:00,DRY,6.23,5.40,14.3,777.00,0.7
2017-12-21,06:15:00,DRY,6.60,6.40,12.0,777.00,0.9
2017-12-21,06:20:00,DRY,5.23,5.97,13.7,777.33,0.9
2017-12-21,06:25:00,DRY,4.30,4.90,18.5,777.50,0.8
2017-12-21,06:30:00,DRY,3.57,4.27,19.7,778.00,0.9
2017-12-21,06:35:00,DRY,3.50,4.50,19.0,778.00,1.0
2017-12-21,06:40:00,DRY,5.07,3.90,22.3,778.00,0.8
2017-12-21,06:45:00,DRY,3.75,3.70,22.0,778.00,0.7
2017-12-21,06:50:00,DRY,3.67,3.53,23.3,778.00,1.4
2017-12-21,06:55:00,DRY,4.65,3.40,23.5,778.00,0.6
2017-12-21,07:00:00,DRY,5.33,3.87,21.7,778.00,0.8
2017-12-21,07:05:00,DRY,5.15,4.20,19.5,778.00,0.8
2017-12-21,07:10:00,DRY,4.57,4.57,18.3,778.00,0.7
2017-12-21,07:15:00,DRY,4.65,4.85,17.5,778.00,0.8
2017-12-21,07:20:00,DRY,3.47,4.53,19.0,778.00,1.1
2017-12-21,07:25:00,DRY,2.70,4.40,18.5,778.00,1.1
2017-12-21,07:30:00,DRY,2.43,4.10,20.3,778.00,1.1
2017-12-21,07:35:00,DRY,2.05,3.95,21.5,778.00,0.9
2017-12-21,07:40:00,DRY,2.97,4.00,20.7,778.00,1.2
2017-12-21,07:45:00,DRY,3.05,4.00,20.5,778.00,2.8
2017-12-21,07:50:00,DRY,3.23,4.03,21.3,778.00,3.0
2017-12-21,07:55:00,DRY,2.50,3.90,20.5,778.00,4.1
2017-12-21,08:00:00,DRY,3.53,3.67,22.3,778.67,6.3
2017-12-21,08:05:00,DRY,2.90,3.50,22.0,778.50,8.4
2017-12-21,08:10:00,DRY,2.90,3.45,22.5,779.00,9.8
2017-12-21,08:15:00,DRY,3.30,3.20,24.5,779.00,12.1
2017-12-21,08:20:00,DRY,4.00,3.43,23.3,779.00,14.3
2017-12-21,08:25:00,DRY,4.00,4.70,19.0,779.00,17.3
2017-12-21,08:30:00,DRY,2.85,4.90,17.0,779.00,18.5
2017-12-21,08:35:00,DRY,2.90,5.90,14.0,779.00,21.1
2017-12-21,08:40:00,DRY,1.10,5.90,16.0,779.00,21.3
2017-12-21,08:45:00,DRY,1.60,5.80,15.0,779.00,166.1
2017-12-21,08:50:00,DRY,2.27,5.80,16.0,779.00,181.5
2017-12-21,08:55:00,DRY,0.65,5.65,18.0,779.00,198.8
2017-12-21,09:00:00,DRY,2.63,6.27,15.7,779.00,217.3
2017-12-21,09:05:00,DRY,3.50,6.50,15.0,779.00,235.9
2017-12-21,09:10:00,DRY,1.97,6.10,16.3,779.00,255.7
2017-12-21,09:15:00,,,,,,
2017-12-21,09:20:00,DRY,2.85,6.40,17.0,779.00,287.7
2017-12-21,09:25:00,DRY,1.50,6.60,16.0,779.00,305.8
2017-12-21,09:30:00,DRY,1.90,6.70,16.0,779.00,320.0
2017-12-21,09:35:00,DRY,2.70,6.90,15.0,779.00,344.8
2017-12-21,09:40:00,DRY,7.10,7.10,15.0,779.00,368.6
2017-12-21,09:45:00,DRY,3.30,7.20,12.5,779.00,379.1
2017-12-21,09:50:00,DRY,2.57,7.57,11.3,779.33,396.2
2017-12-21,09:55:00,DRY,3.70,7.75,12.0,780.00,412.5
2017-12-21,10:00:00,DRY,3.90,7.77,12.0,779.67,428.9
2017-12-21,10:05:00,DRY,4.15,7.85,10.5,779.50,443.2
2017-12-21,10:10:00,DRY,2.23,7.73,12.7,780.00,459.6
2017-12-21,10:15:00,DRY,2.25,7.75,12.5,780.00,474.9
2017-12-21,10:20:00,DRY,3.03,7.77,12.0,780.00,489.0
2017-12-21,10:25:00,DRY,2.65,7.90,12.0,780.00,504.8
2017-12-21,10:30:00,DRY,3.67,8.00,11.7,780.00,518.0
2017-12-21,10:35:00,DRY,4.35,7.85,12.5,779.50,530.8
2017-12-21,10:40:00,DRY,2.43,7.63,14.3,780.00,544.2
2017-12-21,10:45:00,DRY,2.30,7.50,12.5,780.00,555.7
2017-12-21,10:50:00,DRY,2.67,7.50,13.7,780.00,568.8
2017-12-21,10:55:00,DRY,3.90,7.45,18.0,780.00,580.3
2017-12-21,11:00:00,DRY,3.53,7.53,14.0,780.00,591.6
2017-12-21,11:05:00,DRY,1.50,7.50,14.5,780.00,602.4
2017-12-21,11:10:00,DRY,2.03,7.27,21.0,780.00,613.0
2017-12-21,11:15:00,DRY,2.65,7.40,17.0,780.00,623.0
2017-12-21,11:20:00,DRY,3.00,7.33,17.0,780.00,632.3
2017-12-21,11:25:00,DRY,4.50,7.50,17.5,780.00,641.9
2017-12-21,11:30:00,DRY,3.57,7.47,20.0,780.00,651.5
2017-12-21,11:35:00,DRY,3.95,7.40,15.5,780.00,660.0
2017-12-21,11:40:00,DRY,3.60,7.23,21.7,780.00,667.6
2017-12-21,11:45:00,DRY,4.10,7.25,19.5,780.00,675.2
2017-12-21,11:50:00,DRY,4.20,7.03,23.3,780.00,683.4
2017-12-21,11:55:00,DRY,3.90,7.25,25.5,780.00,690.5
2017-12-21,12:00:00,DRY,3.40,7.03,22.7,780.00,696.2
2017-12-21,12:05:00,DRY,3.00,7.00,26.5,780.00,703.1
2017-12-21,12:10:00,DRY,4.43,6.93,25.7,780.00,707.6
2017-12-21,12:15:00,DRY,3.10,6.95,22.5,780.00,712.5
2017-12-21,12:20:00,DRY,3.67,7.03,26.0,780.00,716.9
2017-12-21,12:25:00,DRY,2.55,7.20,24.5,780.00,721.5
2017-12-21,12:30:00,DRY,4.23,7.30,22.0,780.00,724.8
2017-12-21,12:35:00,DRY,3.00,7.15,21.5,780.00,727.4
2017-12-21,12:40:00,DRY,2.57,7.23,23.3,780.00,731.2
2017-12-21,12:45:00,DRY,3.90,6.80,31.5,780.00,732.7
2017-12-21,12:50:00,DRY,3.97,6.80,29.0,780.00,733.9
2017-12-21,12:55:00,DRY,4.15,6.90,27.0,780.00,734.8
2017-12-21,13:00:00,DRY,2.63,6.77,34.0,780.00,736.1
2017-12-21,13:05:00,DRY,4.45,6.75,30.0,780.00,735.8
2017-12-21,13:10:00,DRY,4.13,6.97,28.3,780.00,737.8
2017-12-21,13:15:00,DRY,2.30,7.15,32.0,780.00,736.0
2017-12-21,13:20:00,DRY,4.07,6.93,25.7,780.00,734.9
2017-12-21,13:25:00,DRY,2.05,7.15,27.0,780.00,735.0
2017-12-21,13:30:00,DRY,3.20,6.70,36.0,780.00,734.0
2017-12-21,13:35:00,DRY,1.90,7.10,26.0,780.00,728.5
2017-12-21,13:40:00,DRY,2.47,6.70,36.0,780.00,726.3
2017-12-21,13:45:00,DRY,3.25,7.00,32.0,780.00,723.7
2017-12-21,13:50:00,DRY,3.97,7.03,34.0,780.00,719.7
2017-12-21,13:55:00,DRY,5.20,7.05,30.5,779.50,715.9
2017-12-21,14:00:00,DRY,2.83,7.13,30.3,779.33,709.1
2017-12-21,14:05:00,DRY,5.85,7.05,24.5,780.00,705.9
2017-12-21,14:10:00,DRY,4.43,7.23,27.3,779.33,700.1
2017-12-21,14:15:00,DRY,4.35,7.35,26.0,779.00,694.5
2017-12-21,14:20:00,DRY,4.60,7.27,29.7,779.00,688.2
2017-12-21,14:25:00,DRY,5.40,7.35,26.0,779.00,680.5
2017-12-21,14:30:00,DRY,6.60,7.27,23.7,779.00,673.4
2017-12-21,14:35:00,DRY,5.40,7.20,28.5,779.00,666.8
2017-12-21,14:40:00,DRY,4.17,7.27,26.7,779.00,657.4
2017-12-21,14:45:00,DRY,4.55,7.25,27.0,779.00,649.0
2017-12-21,14:50:00,DRY,4.20,7.30,25.3,779.00,639.6
2017-12-21,14:55:00,DRY,3.85,7.30,24.5,779.00,629.5
2017-12-21,15:00:00,DRY,5.47,7.27,26.7,779.00,619.1
2017-12-21,15:05:00,DRY,3.65,7.30,24.0,779.00,608.5
2017-12-21,15:10:00,DRY,5.20,7.27,27.3,779.00,598.0
2017-12-21,15:15:00,DRY,5.55,7.45,22.5,779.00,585.5
2017-12-21,15:20:00,DRY,6.43,7.37,26.3,779.00,574.8
2017-12-21,15:25:00,DRY,5.30,7.40,30.5,779.00,561.8
2017-12-21,15:30:00,DRY,6.77,7.60,24.0,779.00,549.7
2017-12-21,15:35:00,DRY,3.50,8.00,21.5,779.00,536.0
2017-12-21,15:40:00,DRY,5.47,7.70,24.0,779.00,523.4
2017-12-21,15:45:00,DRY,3.85,7.65,24.0,779.50,509.7
2017-12-21,15:50:00,DRY,6.17,8.20,19.7,779.00,495.0
2017-12-21,15:55:00,DRY,3.65,7.85,29.5,780.00,480.9
2017-12-21,16:00:00,DRY,3.47,7.97,21.3,779.67,464.4
2017-12-21,16:05:00,DRY,4.00,8.15,20.5,779.50,450.0
2017-12-21,16:10:00,DRY,5.10,8.53,17.7,779.67,434.2
2017-12-21,16:15:00,DRY,4.40,8.60,19.0,779.50,418.5
2017-12-21,16:20:00,DRY,4.07,8.47,17.3,780.00,401.9
2017-12-21,16:25:00,DRY,2.85,8.50,21.0,779.50,385.2
2017-12-21,16:30:00,DRY,3.33,8.50,16.7,780.00,367.9
2017-12-21,16:35:00,DRY,4.20,8.55,19.0,780.00,351.0
2017-12-21,16:40:00,DRY,2.37,8.63,17.0,780.00,332.6
2017-12-21,16:45:00,DRY,3.70,8.20,18.0,780.00,315.1
2017-12-21,16:50:00,DRY,4.03,8.30,18.3,780.00,297.8
2017-12-21,16:55:00,DRY,1.75,7.95,20.0,780.00,279.8
2017-12-21,17:00:00,DRY,2.83,8.37,15.0,780.00,262.2
2017-12-21,17:05:00,DRY,2.90,8.35,15.0,780.00,243.9
2017-12-21,17:10:00,DRY,1.57,8.23,17.7,780.00,225.8
2017-12-21,17:15:00,DRY,1.20,8.40,16.0,780.00,207.3
2017-12-21,17:20:00,DRY,1.93,8.17,17.0,780.00,189.6
2017-12-21,17:25:00,DRY,2.90,8.10,14.0,780.00,172.7
2017-12-21,17:30:00,DRY,1.83,8.13,14.0,780.00,156.3
2017-12-21,17:35:00,DRY,2.50,8.15,11.0,780.00,138.2
2017-12-21,17:40:00,DRY,2.10,8.40,12.0,780.00,114.2
2017-12-21,17:45:00,DRY,3.55,8.30,9.5,780.00,87.8
2017-12-21,17:50:00,DRY,2.57,8.50,8.7,780.00,63.2
2017-12-21,17:55:00,DRY,4.10,8.45,7.5,780.00,43.5
2017-12-21,18:00:00,DRY,3.23,8.40,8.7,780.00,34.6
2017-12-21,18:05:00,DRY,3.05,8.25,7.0,780.00,22.9
2017-12-21,18:10:00,DRY,3.77,8.33,7.7,780.00,15.4
2017-12-21,18:15:00,DRY,2.75,8.05,9.0,780.00,11.6
2017-12-21,18:20:00,DRY,4.23,8.40,8.3,780.00,8.1
2017-12-21,18:25:00,DRY,1.35,8.15,8.5,780.00,3.7
2017-12-21,18:30:00,DRY,3.17,8.13,6.7,780.00,2.0
2017-12-21,18:35:00,DRY,4.80,8.35,10.0,780.00,1.2
2017-12-21,18:40:00,DRY,3.50,8.07,7.3,780.00,0.9
2017-12-21,18:45:00,DRY,3.00,7.95,8.0,780.00,1.2
2017-12-21,18:50:00,DRY,3.50,8.17,7.3,780.00,0.3
2017-12-21,18:55:00,DRY,2.60,8.35,7.0,781.00,0.0
2017-12-21,19:00:00,DRY,3.97,8.20,6.7,780.67,0.3
2017-12-21,19:05:00,DRY,2.55,8.15,8.0,781.00,0.0
2017-12-21,19:10:00,DRY,5.43,8.20,8.3,781.00,0.4
2017-12-21,19:15:00,DRY,3.80,8.30,8.0,781.00,0.3
2017-12-21,19:20:00,DRY,4.53,8.27,6.3,781.00,0.3
2017-12-21,19:25:00,DRY,6.45,8.25,6.0,781.00,0.8
2017-12-21,19:30:00,DRY,4.47,8.43,6.0,781.00,1.0
2017-12-21,19:35:00,DRY,2.55,8.30,7.5,781.00,0.4
2017-12-21,19:40:00,DRY,4.33,8.40,6.7,781.00,0.8
2017-12-21,19:45:00,DRY,4.85,8.25,7.0,781.00,0.3
2017-12-21,19:50:00,DRY,5.10,8.53,6.0,781.00,0.3
2017-12-21,19:55:00,DRY,6.10,8.60,6.5,781.00,0.3
2017-12-21,20:00:00,DRY,4.47,8.80,5.3,781.00,0.1
2017-12-21,20:05:00,DRY,5.25,8.65,5.5,781.00,0.7
2017-12-21,20:10:00,DRY,6.47,8.77,5.7,781.00,0.3
2017-12-21,20:15:00,DRY,5.80,8.70,5.0,781.00,0.6
2017-12-21,20:20:00,DRY,6.40,8.87,5.7,781.00,0.4
2017-12-21,20:25:00,DRY,7.70,8.90,5.0,781.00,0.0
2017-12-21,20:30:00,DRY,5.90,8.93,4.7,781.00,0.4
2017-12-21,20:35:00,DRY,5.75,8.95,4.0,781.00,0.5
2017-12-21,20:40:00,DRY,5.67,9.07,3.7,781.00,0.6
2017-12-21,20:45:00,DRY,5.20,9.20,4.5,781.00,0.0
2017-12-21,20:50:00,DRY,5.47,9.27,4.0,781.00,0.5
2017-12-21,20:55:00,DRY,8.05,9.30,3.0,781.00,0.1
2017-12-21,21:00:00,DRY,7.47,9.33,3.3,781.00,0.3
2017-12-21,21:05:00,DRY,5.00,9.35,3.5,781.00,0.6
2017-12-21,21:10:00,DRY,7.90,9.43,3.7,781.33,0.6
2017-12-21,21:15:00,DRY,6.15,9.40,3.5,781.00,0.0
2017-12-21,21:20:00,DRY,7.60,9.43,3.7,781.00,0.2
2017-12-21,21:25:00,DRY,4.95,9.55,4.0,781.00,0.6
2017-12-21,21:30:00,DRY,6.77,9.50,3.0,781.33,0.9
2017-12-21,21:35:00,DRY,7.00,9.75,3.5,782.00,0.3
2017-12-21,21:40:00,DRY,6.90,9.73,3.0,781.00,0.3
2017-12-21,21:45:00,DRY,7.35,9.70,4.0,781.00,0.0
2017-12-21,21:50:00,DRY,5.37,9.53,4.0,782.00,0.2
2017-12-21,21:55:00,DRY,5.40,9.55,3.5,782.00,0.4
2017-12-21,22:00:00,DRY,7.57,9.63,4.0,782.00,0.3
2017-12-21,22:05:00,DRY,4.85,9.55,4.0,781.50,0.3
2017-12-21,22:10:00,DRY,6.07,9.43,3.0,782.00,0.2
2017-12-21,22:15:00,DRY,3.65,9.40,4.0,782.00,0.5
2017-12-21,22:20:00,DRY,3.53,9.33,3.3,782.00,0.4
2017-12-21,22:25:00,DRY,4.85,9.25,3.5,782.00,0.3
2017-12-21,22:30:00,DRY,3.93,8.93,3.3,782.00,0.1
2017-12-21,22:35:00,DRY,3.50,8.80,3.5,782.00,0.4
2017-12-21,22:40:00,DRY,3.43,8.47,3.7,782.00,0.2
2017-12-21,22:45:00,DRY,4.80,8.25,3.0,782.00,0.7
2017-12-21,22:50:00,DRY,4.97,8.17,4.3,782.00,0.2
2017-12-21,22:55:00,DRY,5.00,8.05,3.0,782.00,0.1
2017-12-21,23:00:00,DRY,3.40,8.20,4.0,782.00,0.6
2017-12-21,23:05:00,DRY,3.50,7.90,3.5,782.00,0.4
2017-12-21,23:10:00,DRY,3.50,7.83,3.0,782.00,0.8
2017-12-21,23:15:00,DRY,5.05,7.80,4.0,781.50,0.5
2017-12-21,23:20:00,DRY,6.00,8.00,3.7,781.67,0.3
2017-12-21,23:25:00,DRY,6.40,7.65,4.0,782.00,0.4
2017-12-21,23:30:00,DRY,3.70,7.67,3.7,781.67,0.2
2017-12-21,23:35:00,DRY,4.00,7.55,4.5,781.00,0.6
2017-12-21,23:40:00,DRY,6.70,7.60,3.3,781.33,0.2
2017-12-21,23:45:00,DRY,5.45,7.60,4.5,782.00,0.4
2017-12-21,23:50:00,DRY,3.27,7.43,4.3,781.67,0.5
2017-12-21,23:55:00,DRY,4.35,7.30,4.5,781.50,0.2
2017-12-22,00:00:00,DRY,5.40,7.27,4.7,781.67,0.7
2017-12-22,00:05:00,DRY,4.55,7.45,5.5,781.00,0.3
2017-12-22,00:10:00,DRY,3.77,7.30,5.3,781.33,0.1
2017-12-22,00:15:00,DRY,3.85,7.05,6.0,781.00,0.6
2017-12-22,00:20:00,DRY,4.80,7.40,5.0,781.33,0.6
2017-12-22,00:25:00,DRY,5.90,7.25,5.5,781.50,0.3
2017-12-22,00:30:00,DRY,4.33,7.57,6.0,781.33,0.6
2017-12-22,00:35:00,DRY,4.00,7.65,5.0,781.00,0.6
2017-12-22,00:40:00,DRY,6.43,7.50,5.0,781.33,0.5
2017-12-22,00:45:00,DRY,6.25,7.65,4.0,781.50,0.3
2017-12-22,00:50:00,DRY,5.73,7.60,5.0,781.33,0.7
2017-12-22,00:55:00,DRY,5.30,7.45,4.5,781.00,0.5
2017-12-22,01:00:00,DRY,4.57,7.43,5.3,781.00,0.2
2017-12-22,01:05:00,DRY,6.75,7.55,5.0,781.00,0.5
2017-12-22,01:10:00,DRY,3.57,7.27,6.7,781.00,0.7
2017-12-22,01:15:00,DRY,5.30,7.10,7.5,781.00,0.9
2017-12-22,01:20:00,DRY,6.40,7.17,7.0,781.00,1.0
2017-12-22,01:25:00,DRY,6.10,7.25,7.5,781.00,0.5
2017-12-22,01:30:00,DRY,5.57,7.43,6.7,781.00,0.4
2017-12-22,01:35:00,DRY,4.60,7.40,7.5,781.00,0.1
2017-12-22,01:40:00,DRY,5.53,7.40,8.0,781.00,0.6
2017-12-22,01:45:00,DRY,5.90,7.20,9.5,781.00,0.3
2017-12-22,01:50:00,DRY,4.70,7.20,13.3,781.00,0.6
2017-12-22,01:55:00,DRY,5.05,7.30,12.5,781.00,0.6
2017-12-22,02:00:00,DRY,6.43,7.30,14.3,781.00,0.5
2017-12-22,02:05:00,DRY,6.35,7.30,14.5,781.00,0.6
2017-12-22,02:10:00,DRY,7.17,7.40,15.3,781.00,0.7
2017-12-22,02:15:00,DRY,5.45,7.35,15.0,781.00,0.6
2017-12-22,02:20:00,DRY,5.77,7.33,16.0,781.00,0.4
2017-12-22,02:25:00,DRY,6.65,7.00,16.0,781.00,0.8
2017-12-22,02:30:00,DRY,6.50,7.37,17.3,781.00,0.8
2017-12-22,02:35:00,DRY,3.25,7.30,16.5,781.00,0.4
2017-12-22,02:40:00,DRY,6.03,7.20,16.3,781.00,0.5
2017-12-22,02:45:00,DRY,5.40,7.30,16.5,781.00,0.2
2017-12-22,02:50:00,DRY,6.70,7.20,15.7,781.00,0.9
2017-12-22,02:55:00,DRY,5.05,7.45,14.0,781.00,0.8
2017-12-22,03:00:00,DRY,4.97,7.27,15.0,781.00,0.6
2017-12-22,03:05:00,DRY,4.50,7.30,14.0,781.00,0.5
2017-12-22,03:10:00,DRY,5.40,7.23,14.7,781.00,1.1
2017-12-22,03:15:00,DRY,3.45,7.20,16.0,781.00,0.5
2017-12-22,03:20:00,DRY,4.70,7.30,14.3,781.00,0.4
2017-12-22,03:25:00,DRY,4.45,7.45,13.0,781.00,0.6
2017-12-22,03:30:00,DRY,2.80,7.53,12.7,781.00,0.5
2017-12-22,03:35:00,DRY,5.40,7.35,12.5,781.00,0.4
2017-12-22,03:40:00,DRY,5.57,7.13,13.7,781.00,0.5
2017-12-22,03:45:00,DRY,5.00,7.20,12.5,781.00,0.0
2017-12-22,03:50:00,DRY,4.27,7.30,11.3,781.00,0.3
2017-12-22,03:55:00,DRY,5.55,7.55,11.0,781.00,0.6
2017-12-22,04:00:00,DRY,5.30,7.47,10.0,781.00,0.6
2017-12-22,04:05:00,DRY,4.45,7.35,10.5,781.00,0.7
2017-12-22,04:10:00,DRY,6.27,7.33,9.7,781.00,0.5
2017-12-22,04:15:00,DRY,4.10,7.15,11.5,781.00,0.4
2017-12-22,04:20:00,DRY,4.43,7.20,9.0,781.00,0.6
2017-12-22,04:25:00,DRY,3.70,7.25,9.5,781.00,0.6
2017-12-22,04:30:00,DRY,3.77,7.27,9.0,781.00,0.5
2017-12-22,04:35:00,DRY,2.80,7.15,8.0,781.00,0.7
2017-12-22,04:40:00,DRY,5.10,7.10,8.3,781.00,1.0
2017-12-22,04:45:00,DRY,4.60,6.90,9.5,781.00,1.4
2017-12-22,04:50:00,DRY,8.33,7.00,9.3,780.67,0.4
2017-12-22,04:55:00,DRY,5.95,6.85,9.0,781.00,1.8
2017-12-22,05:00:00,DRY,6.30,7.10,10.0,781.00,1.3
2017-12-22,05:05:00,DRY,7.00,6.95,9.5,781.00,0.6
2017-12-22,05:10:00,DRY,5.93,7.07,9.0,780.67,1.6
2017-12-22,05:15:00,DRY,5.80,7.20,10.0,781.00,0.6
2017-12-22,05:20:00,DRY,4.23,7.00,10.3,781.00,0.1
2017-12-22,05:25:00,DRY,4.70,6.80,12.5,780.50,0.5
2017-12-22,05:30:00,DRY,4.50,6.57,11.0,780.67,0.6
2017-12-22,05:35:00,DRY,4.75,6.20,12.5,780.00,0.3
2017-12-22,05:40:00,DRY,3.27,6.23,13.3,780.67,0.4
2017-12-22,05:45:00,DRY,5.30,5.80,14.5,780.50,0.6
2017-12-22,05:50:00,DRY,5.63,5.97,13.0,780.33,0.4
2017-12-22,05:55:00,DRY,5.70,6.25,13.0,780.50,0.9
2017-12-22,06:00:00,DRY,5.07,5.87,14.3,781.00,0.6
2017-12-22,06:05:00,DRY,4.60,5.85,14.0,780.50,1.2
2017-12-22,06:10:00,DRY,6.27,6.20,13.3,780.67,0.7
2017-12-22,06:15:00,DRY,7.10,6.15,14.0,780.50,0.6
2017-12-22,06:20:00,DRY,4.83,6.27,14.3,780.33,0.7
2017-12-22,06:25:00,DRY,6.50,6.20,14.5,780.50,0.7
2017-12-22,06:30:00,DRY,5.53,6.37,13.7,780.67,0.9
2017-12-22,06:35:00,DRY,3.05,6.05,15.0,781.00,2.2
2017-12-22,06:40:00,DRY,4.57,5.90,15.0,781.00,0.5
2017-12-22,06:45:00,DRY,4.00,6.15,15.0,781.00,0.7
2017-12-22,06:50:00,DRY,5.70,6.23,15.0,781.00,0.7
2017-12-22,06:55:00,DRY,5.15,5.95,16.0,781.00,0.3
2017-12-22,07:00:00,DRY,3.33,5.93,18.7,781.00,0.6
2017-12-22,07:05:00,DRY,4.95,5.85,19.0,781.00,0.5
2017-12-22,07:10:00,DRY,2.93,5.90,21.7,781.00,0.7
2017-12-22,07:15:00,DRY,3.40,5.65,22.0,781.00,0.6
2017-12-22,07:20:00,DRY,5.83,5.83,20.0,781.00,0.7
2017-12-22,07:25:00,DRY,3.35,6.05,20.5,781.00,0.8
2017-12-22,07:30:00,DRY,4.63,6.13,20.3,781.00,0.6
2017-12-22,07:35:00,DRY,3.10,6.20,21.5,781.00,1.0
2017-12-22,07:40:00,DRY,4.67,6.03,19.3,781.00,0.7
2017-12-22,07:45:00,DRY,4.15,5.85,22.5,781.00,1.4
2017-12-22,07:50:00,DRY,4.30,6.13,19.7,781.00,2.7
2017-12-22,07:55:00,DRY,5.45,6.25,19.0,781.00,4.2
2017-12-22,08:00:00,DRY,2.60,6.47,18.7,781.00,6.6
2017-12-22,08:05:00,DRY,5.80,6.20,19.0,781.00,8.6
2017-12-22,08:10:00,DRY,2.73,6.20,19.7,781.00,10.3
2017-12-22,08:15:00,DRY,1.90,6.20,19.5,781.00,12.6
2017-12-22,08:20:00,DRY,2.97,6.37,19.0,781.00,14.9
2017-12-22,08:25:00,DRY,2.50,6.35,18.5,781.00,15.8
2017-12-22,08:30:00,DRY,4.43,6.47,19.3,781.00,18.5
2017-12-22,08:35:00,DRY,1.55,6.65,18.5,781.00,21.5
2017-12-22,08:40:00,DRY,3.03,6.80,17.3,781.00,26.6
2017-12-22,08:45:00,DRY,2.15,7.15,17.5,781.00,148.3
2017-12-22,08:50:00,DRY,4.17,7.50,15.7,781.00,178.1
2017-12-22,08:55:00,DRY,2.30,7.55,17.0,781.00,195.5
2017-12-22,09:00:00,DRY,3.87,7.47,15.7,781.00,214.3
2017-12-22,09:05:00,DRY,6.65,7.60,15.5,781.00,233.7
2017-12-22,09:10:00,DRY,2.77,7.43,16.0,781.00,251.7
2017-12-22,09:15:00,DRY,3.25,7.60,15.0,781.00,271.2
2017-12-22,09:20:00,DRY,3.40,7.67,14.3,781.00,288.6
2017-12-22,09:25:00,DRY,6.15,7.25,17.0,781.00,306.6
2017-12-22,09:30:00,DRY,3.00,7.07,16.0,781.00,325.0
2017-12-22,09:35:00,DRY,3.20,7.30,16.0,781.00,341.2
2017-12-22,09:40:00,DRY,2.87,7.30,16.0,781.00,359.0
2017-12-22,09:45:00,DRY,3.65,7.45,16.5,781.00,376.5
2017-12-22,09:50:00,DRY,3.30,7.60,16.7,781.00,393.3
2017-12-22,09:55:00,DRY,3.55,7.35,18.0,781.00,409.4
2017-12-22,10:00:00,DRY,3.73,7.47,17.0,781.00,425.0
2017-12-22,10:05:00,DRY,3.75,7.85,16.0,781.00,440.7
2017-12-22,10:10:00,DRY,2.67,7.90,14.7,781.33,456.3
2017-12-22,10:15:00,DRY,2.35,8.35,14.0,782.00,472.1
2017-12-22,10:20:00,DRY,5.40,8.40,13.3,782.00,486.1
2017-12-22,10:25:00,DRY,4.35,8.45,11.0,781.50,501.5
2017-12-22,10:30:00,DRY,2.87,8.23,12.3,782.00,514.6
2017-12-22,10:35:00,DRY,3.75,8.20,14.0,782.00,528.3
2017-12-22,10:40:00,DRY,4.00,7.70,15.3,782.00,542.4
2017-12-22,10:45:00,DRY,5.25,7.55,15.5,782.00,553.9
2017-12-22,10:50:00,DRY,4.90,8.13,12.7,782.00,566.3
2017-12-22,10:55:00,DRY,3.65,8.30,12.5,782.00,577.6
2017-12-22,11:00:00,DRY,3.57,7.97,15.0,782.00,589.3
2017-12-22,11:05:00,DRY,2.65,8.00,19.5,782.00,601.0
2017-12-22,11:10:00,DRY,4.30,7.93,19.7,782.00,611.1
2017-12-22,11:15:00,DRY,3.55,8.20,15.5,782.00,622.4
2017-12-22,11:20:00,DRY,4.57,8.20,15.7,782.00,632.5
2017-12-22,11:25:00,DRY,4.10,8.10,18.5,782.00,642.0
2017-12-22,11:30:00,DRY,3.30,8.23,16.7,782.00,651.3
2017-12-22,11:35:00,DRY,6.50,8.40,16.0,782.00,659.4
2017-12-22,11:40:00,DRY,3.73,8.20,16.0,782.00,667.8
2017-12-22,11:45:00,DRY,4.50,8.00,17.0,782.00,675.9
2017-12-22,11:50:00,DRY,4.67,8.07,14.0,782.00,683.6
2017-12-22,11:55:00,DRY,4.45,8.05,16.5,782.00,690.2
2017-12-22,12:00:00,DRY,4.50,8.07,18.3,782.00,696.3
2017-12-22,12:05:00,DRY,5.25,8.10,17.0,782.00,702.3
2017-12-22,12:10:00,DRY,5.17,7.97,18.0,781.67,708.4
2017-12-22,12:15:00,DRY,5.60,7.95,19.0,781.50,713.5
2017-12-22,12:20:00,DRY,3.73,7.97,19.3,781.33,717.9
2017-12-22,12:25:00,DRY,3.95,7.90,19.5,781.50,721.1
2017-12-22,12:30:00,DRY,5.73,7.90,21.0,781.33,725.4
2017-12-22,12:35:00,DRY,4.20,8.00,19.0,781.00,727.2
2017-12-22,12:40:00,DRY,4.67,8.00,23.0,781.00,732.0
2017-12-22,12:45:00,DRY,4.75,7.80,23.5,781.00,733.6
2017-12-22,12:50:00,DRY,4.17,7.87,25.7,781.00,735.5
2017-12-22,12:55:00,DRY,2.95,7.90,30.5,781.00,736.3
2017-12-22,13:00:00,DRY,5.30,7.80,21.7,781.00,737.6
2017-12-22,13:05:00,DRY,3.45,7.95,31.0,781.00,737.2
2017-12-22,13:10:00,DRY,3.50,8.03,23.0,781.00,736.8
2017-12-22,13:15:00,DRY,5.75,8.05,20.5,781.00,737.5
2017-12-22,13:20:00,DRY,5.30,7.83,23.3,781.00,736.0
2017-12-22,13:25:00,DRY,5.15,7.80,27.0,781.00,734.2
2017-12-22,13:30:00,DRY,3.40,7.90,24.0,781.00,732.2
2017-12-22,13:35:00,DRY,4.80,7.70,22.0,781.00,730.2
2017-12-22,13:40:00,DRY,5.67,7.67,27.3,781.00,726.0
2017-12-22,13:45:00,DRY,5.15,7.65,28.5,781.00,723.1
2017-12-22,13:50:00,DRY,3.50,7.63,29.3,780.67,720.3
2017-12-22,13:55:00,DRY,3.00,7.75,28.0,781.00,716.0
2017-12-22,14:00:00,DRY,3.10,7.73,32.7,780.67,710.9
2017-12-22,14:05:00,DRY,2.35,8.00,26.5,780.50,705.9
2017-12-22,14:10:00,DRY,3.20,7.97,31.7,780.67,698.8
2017-12-22,14:15:00,DRY,3.70,7.90,39.0,780.00,693.6
2017-12-22,14:20:00,DRY,2.60,7.73,45.7,780.00,685.7
2017-12-22,14:25:00,DRY,2.55,7.65,39.0,780.00,681.3
2017-12-22,14:30:00,DRY,2.60,7.70,37.0,780.00,672.5
2017-12-22,14:35:00,DRY,3.65,7.60,46.0,780.00,663.6
2017-12-22,14:40:00,DRY,3.57,7.33,41.0,780.00,655.0
2017-12-22,14:45:00,DRY,3.75,7.15,43.0,780.00,647.3
2017-12-22,14:50:00,DRY,2.97,7.10,39.7,780.00,638.0
2017-12-22,14:55:00,DRY,2.55,6.50,45.5,780.00,627.0
2017-12-22,15:00:00,DRY,3.10,7.27,42.3,780.00,617.6
2017-12-22,15:05:00,DRY,2.05,7.10,41.0,780.00,606.0
2017-12-22,15:10:00,DRY,2.00,7.00,48.0,780.00,597.2
2017-12-22,15:15:00,DRY,4.05,6.95,39.5,780.00,584.5
2017-12-22,15:20:00,DRY,5.33,6.97,34.3,780.00,572.4
2017-12-22,15:25:00,DRY,3.25,7.10,41.5,780.00,558.3
2017-12-22,15:30:00,DRY,2.37,6.67,37.7,780.00,547.0
2017-12-22,15:35:00,DRY,3.75,6.90,37.5,780.00,534.3
2017-12-22,15:40:00,DRY,3.00,6.73,37.7,780.00,520.9
2017-12-22,15:45:00,DRY,2.10,6.85,38.5,780.00,508.1
2017-12-22,15:50:00,DRY,5.03,7.00,32.3,780.00,493.6
2017-12-22,15:55:00,DRY,2.30,6.75,27.0,780.00,478.2
2017-12-22,16:00:00,DRY,3.03,6.83,33.0,780.00,464.5
2017-12-22,16:05:00,DRY,1.20,7.15,28.5,780.00,448.8
2017-12-22,16:10:00,DRY,2.87,7.03,33.0,780.00,430.9
2017-12-22,16:15:00,DRY,3.20,6.85,29.0,780.00,415.8
2017-12-22,16:20:00,DRY,1.80,6.90,29.3,780.00,398.3
2017-12-22,16:25:00,DRY,2.95,6.75,29.0,780.00,381.6
2017-12-22,16:30:00,DRY,3.00,6.73,25.3,780.00,365.1
2017-12-22,16:35:00,DRY,4.20,6.60,26.0,780.00,348.5
2017-12-22,16:40:00,DRY,3.97,6.50,27.7,780.00,331.1
2017-12-22,16:45:00,DRY,2.55,6.45,27.0,780.00,313.6
2017-12-22,16:50:00,DRY,2.37,6.40,25.7,780.00,295.3
2017-12-22,16:55:00,DRY,2.50,6.55,26.5,780.00,277.9
2017-12-22,17:00:00,DRY,3.57,6.40,28.0,780.00,259.5
2017-12-22,17:05:00,DRY,2.85,6.35,29.5,780.00,241.8
2017-12-22,17:10:00,DRY,2.70,6.23,29.3,780.00,223.4
2017-12-22,17:15:00,DRY,0.80,6.20,26.5,780.00,205.2
2017-12-22,17:20:00,DRY,3.33,6.17,25.7,780.00,188.9
2017-12-22,17:25:00,DRY,2.50,6.30,25.0,780.00,171.3
2017-12-22,17:30:00,DRY,1.83,6.17,25.3,780.00,154.3
2017-12-22,17:35:00,DRY,1.55,6.35,23.0,780.00,137.1
2017-12-22,17:40:00,DRY,3.60,6.33,22.7,780.00,113.6
2017-12-22,17:45:00,DRY,3.85,6.35,23.5,780.00,91.1
2017-12-22,17:50:00,DRY,3.27,6.27,22.0,780.00,69.5
2017-12-22,17:55:00,DRY,3.55,6.20,23.0,780.00,51.9
2017-12-22,18:00:00,DRY,2.93,6.17,21.3,780.00,36.7
2017-12-22,18:05:00,DRY,4.30,6.10,23.0,780.50,23.6
2017-12-22,18:10:00,DRY,2.43,5.97,22.7,780.00,16.5
2017-12-22,18:15:00,DRY,2.50,5.80,23.0,780.00,11.9
2017-12-22,18:20:00,DRY,2.37,5.67,24.3,780.00,7.4
2017-12-22,18:25:00,DRY,3.60,5.75,21.0,780.00,3.9
2017-12-22,18:30:00,DRY,3.20,5.87,22.3,780.33,1.7
2017-12-22,18:35:00,DRY,4.45,6.05,23.0,781.00,1.2
2017-12-22,18:40:00,DRY,4.70,5.97,22.0,780.33,1.0
2017-12-22,18:45:00,DRY,4.20,6.10,21.5,780.50,1.6
2017-12-22,18:50:00,DRY,4.70,6.03,21.0,781.00,0.5
2017-12-22,18:55:00,DRY,5.35,5.85,21.0,781.00,0.9
2017-12-22,19:00:00,DRY,4.00,5.73,21.7,781.00,0.6
2017-12-22,19:05:00,DRY,5.95,5.60,22.0,781.00,0.3
2017-12-22,19:10:00,DRY,4.50,5.70,21.7,781.00,0.5
2017-12-22,19:15:00,DRY,3.80,5.55,22.5,781.00,0.6
2017-12-22,19:20:00,DRY,4.57,5.67,21.0,781.00,0.8
2017-12-22,19:25:00,DRY,5.20,5.80,22.0,781.00,0.6
2017-12-22,19:30:00,DRY,6.70,5.77,22.7,781.00,0.5
2017-12-22,19:35:00,DRY,5.50,5.85,24.0,781.00,0.8
2017-12-22,19:40:00,DRY,6.07,5.93,24.0,781.00,1.7
2017-12-22,19:45:00,DRY,4.85,5.90,25.0,781.00,1.2
2017-12-22,19:50:00,DRY,4.80,5.63,28.0,781.00,0.6
2017-12-22,19:55:00,DRY,4.65,5.65,27.0,781.00,0.6
2017-12-22,20:00:00,DRY,4.80,5.70,23.3,781.00,0.1
2017-12-22,20:05:00,DRY,4.60,5.60,23.5,781.00,0.8
2017-12-22,20:10:00,DRY,4.37,5.73,22.7,781.00,0.3
2017-12-22,20:15:00,DRY,4.05,6.10,23.0,781.00,0.6
2017-12-22,20:20:00,DRY,4.57,5.83,23.7,781.00,0.5
2017-12-22,20:25:00,DRY,3.85,6.05,24.0,781.00,0.6
2017-12-22,20:30:00,DRY,6.60,6.07,21.7,781.00,0.3
2017-12-22,20:35:00,DRY,5.20,5.95,22.5,781.00,0.3